sat.trackr.live / text

‹ back to catalog

RAWHIDE-2

NORAD 68632 · 2026-074F

PAYLOAD ACTIVE UNKNOWN

§ Identity

Operator
Country
US
Launch date
2026-04-07
Launch site
AFWTR
Launch vehicle
Mass (kg)
RCS (m²)

External: N2YO · Heavens-Above · Gunter

§ Orbital elements

Epoch: 2026-05-25T01:27:12.775392Z

Period
94.41 min
Inclination
60.0319°
Eccentricity
0.0024544
Mean motion
15.25243567 rev/d
Perigee alt
473.2 km
Apogee alt
506.9 km
Semi-major
6,868.2 km
B*
3.8918e-4
RAAN
266.7626°
Arg perigee
11.6094°
Mean anomaly
348.5548°
Rev number
725

§ Raw data

RAWHIDE-21 68632U 26074F   26145.06056453  .00009666  00000+0  38918-3 0  99992 68632  60.0319 266.7626 0024544  11.6094 348.5548 15.25243567  7252

JSON: /api/v1/satellites/68632 · /tle

For live sub-satellite position, see the globe view (requires WebGL).

§ Visibility from observer

Set your observer location to see the next 7 days of passes ≥ 10°. The values pass through the URL so the page stays shareable.

No JS? Fill the form by hand. The geolocation button needs JavaScript.